Hourly Weather Bartlett

Today, 19 April, Monday

Time Temperature Precipitation Wind Pressure Humidity
00:00 +6°C° 0 mm 4 mps 735 mmHg 77%
01:00 +6°C° 0 mm 4 mps 735 mmHg 76%
02:00 +6°C° 0 mm 4 mps 734 mmHg 74%
03:00 +6°C° 0 mm 5 mps 734 mmHg 73%
04:00 +6°C° 0 mm 5 mps 735 mmHg 78%
05:00 +5°C° 0 mm 5 mps 735 mmHg 82%
06:00 +3°C° 0 mm 5 mps 736 mmHg 87%
07:00 +3°C° 0.2 mm 5 mps 736 mmHg 82%
08:00 +4°C° 0.2 mm 4 mps 736 mmHg 78%
09:00 +4°C° 0.2 mm 4 mps 736 mmHg 73%
10:00 +5°C° 0 mm 5 mps 736 mmHg 65%
11:00 +6°C° 0 mm 5 mps 736 mmHg 57%
12:00 +7°C° 0 mm 6 mps 737 mmHg 49%
13:00 +7°C° 0 mm 6 mps 737 mmHg 48%
14:00 +7°C° 0 mm 6 mps 737 mmHg 47%
15:00 +6°C° 0 mm 5 mps 737 mmHg 46%
16:00 +6°C° 0 mm 5 mps 738 mmHg 46%
17:00 +6°C° 0 mm 5 mps 738 mmHg 47%
18:00 +5°C° 0 mm 4 mps 738 mmHg 48%
19:00 +4°C° 0 mm 4 mps 739 mmHg 50%
20:00 +4°C° 0 mm 4 mps 739 mmHg 53%
21:00 +3°C° 0 mm 3 mps 740 mmHg 55%
22:00 +2°C° 0 mm 3 mps 740 mmHg 58%
23:00 +2°C° 0 mm 3 mps 740 mmHg 60%

Tomorrow, 20 April, Tuesday

Time Temperature Precipitation Wind Pressure Humidity
00:00 +2°C° 0 mm 2 mps 740 mmHg 63%
01:00 +2°C° 0 mm 2 mps 740 mmHg 63%
02:00 +2°C° 0 mm 2 mps 740 mmHg 63%
03:00 +2°C° 0 mm 2 mps 740 mmHg 63%
04:00 +2°C° 0 mm 2 mps 741 mmHg 63%
05:00 +2°C° 0 mm 2 mps 741 mmHg 62%
06:00 +2°C° 0 mm 2 mps 741 mmHg 62%
07:00 +2°C° 0 mm 2 mps 741 mmHg 57%
08:00 +3°C° 0 mm 2 mps 742 mmHg 52%
09:00 +3°C° 0 mm 2 mps 742 mmHg 48%
10:00 +3°C° 0 mm 2 mps 742 mmHg 46%
11:00 +4°C° 0 mm 2 mps 742 mmHg 44%
12:00 +5°C° 0 mm 1 mps 741 mmHg 43%
13:00 +6°C° 0 mm 1 mps 741 mmHg 43%
14:00 +6°C° 0 mm 1 mps 741 mmHg 43%
15:00 +6°C° 0 mm 2 mps 740 mmHg 44%
16:00 +5°C° 0.2 mm 2 mps 740 mmHg 51%
17:00 +4°C° 0.2 mm 2 mps 740 mmHg 58%
18:00 +4°C° 0.2 mm 2 mps 740 mmHg 65%
19:00 +4°C° 0.1 mm 1 mps 741 mmHg 70%
20:00 +3°C° 0.1 mm 1 mps 741 mmHg 75%
21:00 +2°C° 0.1 mm 1 mps 741 mmHg 80%
22:00 +2°C° 0 mm 1 mps 741 mmHg 80%
23:00 +1°C° 0 mm 1 mps 741 mmHg 80%

Day after tomorrow, 21 April, Wednesday

Time Temperature Precipitation Wind Pressure Humidity
00:00 -1°C° 0 mm 2 mps 741 mmHg 80%
01:00 -1°C° 0 mm 2 mps 741 mmHg 80%
02:00 -1°C° 0 mm 2 mps 741 mmHg 79%
03:00 -2°C° 0 mm 3 mps 741 mmHg 79%
04:00 -2°C° 0 mm 3 mps 742 mmHg 77%
05:00 -2°C° 0 mm 3 mps 742 mmHg 76%
06:00 -2°C° 0 mm 3 mps 742 mmHg 75%
07:00 0°C° 0 mm 3 mps 742 mmHg 63%
08:00 +1°C° 0 mm 4 mps 742 mmHg 51%
09:00 +4°C° 0 mm 4 mps 742 mmHg 40%
10:00 +5°C° 0.1 mm 5 mps 742 mmHg 41%
11:00 +5°C° 0.1 mm 5 mps 742 mmHg 42%
12:00 +5°C° 0.1 mm 6 mps 742 mmHg 44%
13:00 +5°C° 0.1 mm 6 mps 742 mmHg 43%
14:00 +5°C° 0.1 mm 6 mps 741 mmHg 43%
15:00 +5°C° 0.1 mm 6 mps 741 mmHg 42%
16:00 +5°C° 0 mm 5 mps 741 mmHg 45%
17:00 +3°C° 0 mm 5 mps 741 mmHg 47%
18:00 +4°C° 0 mm 4 mps 741 mmHg 50%
19:00 +3°C° 0 mm 4 mps 741 mmHg 54%
20:00 +1°C° 0 mm 4 mps 741 mmHg 59%
21:00 0°C° 0 mm 3 mps 742 mmHg 64%
22:00 0°C° 0 mm 3 mps 742 mmHg 66%
23:00 -1°C° 0 mm 3 mps 742 mmHg 69%

22 April, Thursday

Time Temperature Precipitation Wind Pressure Humidity
00:00 -2°C° 0 mm 3 mps 742 mmHg 71%
01:00 -2°C° 0 mm 3 mps 742 mmHg 70%
02:00 -2°C° 0 mm 3 mps 742 mmHg 70%
03:00 -4°C° 0 mm 3 mps 742 mmHg 69%
04:00 -4°C° 0 mm 3 mps 743 mmHg 67%
05:00 -2°C° 0 mm 3 mps 743 mmHg 65%
06:00 -2°C° 0 mm 3 mps 743 mmHg 63%
07:00 0°C° 0 mm 3 mps 744 mmHg 54%
08:00 +1°C° 0 mm 4 mps 744 mmHg 44%
09:00 +5°C° 0 mm 4 mps 744 mmHg 35%
10:00 +6°C° 0 mm 4 mps 744 mmHg 35%
11:00 +7°C° 0 mm 5 mps 744 mmHg 35%
12:00 +8°C° 0 mm 5 mps 744 mmHg 35%
13:00 +9°C° 0 mm 5 mps 743 mmHg 36%
14:00 +10°C° 0 mm 5 mps 743 mmHg 38%
15:00 +10°C° 0 mm 5 mps 743 mmHg 39%
16:00 +10°C° 0 mm 5 mps 742 mmHg 44%
17:00 +10°C° 0 mm 4 mps 742 mmHg 49%
18:00 +9°C° 0 mm 3 mps 742 mmHg 54%
19:00 +8°C° 0 mm 3 mps 742 mmHg 58%
20:00 +7°C° 0 mm 3 mps 742 mmHg 62%
21:00 +5°C° 0 mm 4 mps 743 mmHg 66%
22:00 +5°C° 0 mm 4 mps 742 mmHg 69%
23:00 +4°C° 0 mm 4 mps 742 mmHg 72%

23 April, Friday

Time Temperature Precipitation Wind Pressure Humidity
00:00 +4°C° 0 mm 4 mps 742 mmHg 74%
01:00 +3°C° 0 mm 4 mps 742 mmHg 76%
02:00 +3°C° 0 mm 4 mps 742 mmHg 78%
03:00 +3°C° 0 mm 4 mps 742 mmHg 80%
04:00 +3°C° 0 mm 4 mps 742 mmHg 79%
05:00 +3°C° 0 mm 4 mps 742 mmHg 77%
06:00 +4°C° 0 mm 4 mps 741 mmHg 76%
07:00 +5°C° 0 mm 5 mps 741 mmHg 71%
08:00 +6°C° 0 mm 5 mps 741 mmHg 67%
09:00 +8°C° 0 mm 6 mps 741 mmHg 62%
10:00 +7°C° 0.3 mm 6 mps 741 mmHg 70%
11:00 +7°C° 0.3 mm 6 mps 740 mmHg 77%
12:00 +5°C° 0.3 mm 6 mps 740 mmHg 85%
13:00 +5°C° 0.1 mm 6 mps 740 mmHg 87%
14:00 +4°C° 0.1 mm 6 mps 739 mmHg 89%
15:00 +4°C° 0.1 mm 6 mps 738 mmHg 91%
16:00 +4°C° 0 mm 6 mps 738 mmHg 91%
17:00 +5°C° 0 mm 5 mps 738 mmHg 91%
18:00 +5°C° 0 mm 5 mps 738 mmHg 91%
19:00 +5°C° 0 mm 5 mps 738 mmHg 92%
20:00 +5°C° 0 mm 5 mps 738 mmHg 93%
21:00 +5°C° 0 mm 5 mps 738 mmHg 94%
22:00 +6°C° 0 mm 5 mps 737 mmHg 95%
23:00 +6°C° 0 mm 5 mps 737 mmHg 95%

24 April, Saturday

Time Temperature Precipitation Wind Pressure Humidity
00:00 +6°C° 0 mm 5 mps 737 mmHg 96%
01:00 +6°C° 0.1 mm 5 mps 737 mmHg 95%
02:00 +6°C° 0.1 mm 5 mps 737 mmHg 95%
03:00 +6°C° 0.1 mm 5 mps 737 mmHg 94%
04:00 +5°C° 0.5 mm 5 mps 738 mmHg 94%
05:00 +3°C° 0.5 mm 4 mps 738 mmHg 94%
06:00 +1°C° 0.5 mm 4 mps 739 mmHg 94%
07:00 +2°C° 0 mm 5 mps 739 mmHg 81%
08:00 +5°C° 0 mm 5 mps 740 mmHg 68%
09:00 +6°C° 0 mm 5 mps 740 mmHg 55%
10:00 +7°C° 0 mm 5 mps 740 mmHg 50%
11:00 +8°C° 0 mm 4 mps 740 mmHg 45%
12:00 +10°C° 0 mm 4 mps 741 mmHg 39%
13:00 +10°C° 0 mm 4 mps 741 mmHg 38%
14:00 +11°C° 0 mm 4 mps 741 mmHg 37%
15:00 +11°C° 0 mm 4 mps 741 mmHg 35%
16:00 +10°C° 0 mm 3 mps 741 mmHg 40%
17:00 +10°C° 0 mm 2 mps 741 mmHg 44%
18:00 +9°C° 0 mm 2 mps 741 mmHg 48%
19:00 +8°C° 0 mm 2 mps 742 mmHg 50%
20:00 +7°C° 0 mm 2 mps 742 mmHg 52%
21:00 +6°C° 0 mm 1 mps 742 mmHg 53%
22:00 +5°C° 0 mm 2 mps 742 mmHg 55%
23:00 +5°C° 0 mm 2 mps 742 mmHg 56%
Show more